Date and Time,30m Wind Direction,30m Wind Speed,30m Wind Vert,30m Quality,40m Wind Direction,40m Wind Speed,40m Wind Vert,40m Quality,50m Wind Direction,50m Wind Speed,50m Wind Vert,50m Quality,60m Wind Direction,60m Wind Speed,60m Wind Vert,60m Quality,80m Wind Direction,80m Wind Speed,80m Wind Vert,80m Quality,100m Wind Direction,100m Wind Speed,100m Wind Vert,100m Quality,120m Wind Direction,120m Wind Speed,120m Wind Vert,120m Quality,140m Wind Direction,140m Wind Speed,140m Wind Vert,140m Quality,160m Wind Direction,160m Wind Speed,160m Wind Vert,160m Quality,180m Wind Direction,180m Wind Speed,180m Wind Vert,180m Quality,200m Wind Direction,200m Wind Speed,200m Wind Vert,200m Quality,30m Wind Turbulence,40m Wind Turbulence,50m Wind Turbulence,60m Wind Turbulence,80m Wind Turbulence,100m Wind Turbulence,120m Wind Turbulence,140m Wind Turbulence,160m Wind Turbulence,180m Wind Turbulence,200m Wind Turbulence
8/9/2016 12:00 AM,168.10,0.77,-0.06,98,64.90,0.70,0.11,96,81.60,1.57,0.15,95,88.90,2.26,0.11,93,110.30,2.82,0.05,94,110.50,3.66,-0.12,91,153.20,2.52,0.00,90,107.70,5.15,-0.12,87,103.20,4.14,0.39,88,62.80,4.99,0.13,90,82.90,3.60,0.59,89,0.83,1.59,0.69,0.57,0.45,0.55,0.96,0.48,0.66,0.68,0.89
8/9/2016 12:10 AM,72.00,0.17,-0.18,97,86.80,1.01,-0.08,97,133.60,1.23,0.00,95,37.20,1.31,0.26,94,86.60,2.00,0.26,96,93.50,4.05,0.35,93,152.30,4.86,0.62,92,62.00,2.41,0.43,92,83.50,2.54,0.35,93,118.30,2.72,0.60,91,248.30,4.96,1.04,81,4.73,0.63,0.89,0.92,1.40,0.99,0.84,1.09,1.36,0.73,0.82
8/9/2016 12:20 AM,102.70,1.27,-0.13,96,99.90,1.53,-0.08,98,152.10,1.37,-0.11,95,118.60,0.86,0.03,95,335.40,0.37,0.10,92,103.60,0.71,-0.01,91,96.10,2.10,0.01,90,353.50,2.28,-0.46,85,252.60,1.01,0.26,89,90.70,1.94,0.00,91,289.30,2.00,0.29,87,0.45,0.28,0.58,1.83,1.36,1.07,0.73,2.19,4.08,0.71,1.60
8/9/2016 12:30 AM,145.80,1.31,-0.25,97,127.20,1.59,-0.19,94,100.40,2.35,-0.36,92,127.60,4.82,-0.61,89,151.30,9.89,-1.09,86,163.40,6.30,-1.43,77,165.60,4.09,-1.14,64,129.40,9.09,-1.89,51,146.40,9.53,-1.16,50,139.90,11.04,-1.50,60,288.80,4.73,-1.93,56,0.46,0.37,0.38,0.32,0.30,0.62,0.70,0.36,0.58,0.32,1.78
8/9/2016 12:40 AM,69.20,0.38,-0.29,96,157.40,1.44,-0.15,95,179.50,2.54,0.06,92,196.70,5.19,0.36,88,164.40,7.26,0.43,86,161.70,9.89,0.43,69,203.10,9.07,-0.04,75,200.20,10.70,-0.05,71,145.60,8.77,0.15,81,153.90,2.34,0.78,65,119.40,4.89,0.88,68,1.69,0.64,0.55,0.59,0.61,0.51,1.68,0.84,0.86,1.08,0.82
8/9/2016 12:50 AM,34.10,0.65,-0.41,97,110.00,1.31,-0.37,93,92.70,2.02,-0.28,93,90.60,4.17,-0.38,91,84.30,3.33,-1.14,87,121.60,2.62,-1.37,47,96.60,2.96,-1.06,59,122.60,2.68,-1.18,73,110.60,3.23,-0.93,81,120.80,2.34,-1.53,57,211.00,1.15,-1.86,44,0.89,0.54,0.40,0.30,0.57,0.77,0.84,0.64,0.73,0.56,1.12
8/9/2016 1:00 AM,98.00,0.77,-0.20,98,165.70,1.55,-0.04,92,102.80,3.51,0.13,87,104.20,1.28,0.45,86,80.80,9.46,0.16,85,80.00,2.78,0.55,80,182.20,1.48,0.87,85,89.90,5.70,0.81,76,107.40,8.13,1.08,78,113.60,4.69,0.71,82,102.10,6.11,1.13,79,1.12,0.61,0.83,1.14,0.42,0.56,1.46,0.60,0.61,1.25,0.48
8/9/2016 1:10 AM,252.00,2.10,-0.94,94,291.60,4.25,-2.93,70,154.20,1.65,-3.75,71,182.10,4.51,-3.92,66,169.50,2.63,-4.27,66,62.20,3.80,-4.28,61,140.20,3.68,-3.98,70,75.80,1.78,-4.46,64,141.10,2.42,-4.16,69,168.50,4.87,-3.76,68,126.50,4.08,-4.26,64,0.70,1.34,0.47,0.33,0.45,0.56,0.41,0.60,0.54,0.43,0.61
8/9/2016 1:20 AM,189.90,6.63,-1.01,93,133.00,3.54,-2.76,90,321.40,2.54,-4.63,89,228.90,1.03,-5.77,85,229.40,1.44,-5.97,70,172.00,4.87,-5.58,77,123.90,1.77,-6.16,84,195.70,2.37,-6.29,62,180.20,5.47,-5.84,67,208.30,3.00,-6.55,61,213.70,3.56,-6.37,56,0.29,0.73,4.70,1.62,0.93,0.86,1.33,0.54,0.38,0.56,0.37
8/9/2016 1:30 AM,198.70,5.54,-0.88,95,188.90,6.27,-1.40,88,216.80,10.33,-2.58,89,208.10,6.60,-2.21,75,175.30,9.30,-2.11,75,209.60,9.93,-2.71,77,200.90,10.64,-1.70,76,219.90,12.18,-2.75,73,205.30,9.44,-2.69,76,178.20,9.64,-1.89,78,232.70,12.24,-3.04,75,0.40,1.00,1.20,2.05,2.08,2.50,1.54,1.18,2.27,0.92,1.12
8/9/2016 1:40 AM,143.60,1.22,-0.01,93,161.20,2.48,0.52,86,142.30,6.67,0.80,88,160.60,2.68,0.73,74,77.70,2.54,0.18,62,133.40,4.50,0.52,63,236.70,9.68,0.82,70,165.10,1.84,0.97,58,110.00,4.32,0.67,86,189.30,4.51,1.03,54,75.80,1.10,0.39,64,0.52,0.61,0.39,1.27,0.66,0.79,0.50,0.53,0.55,0.82,1.16
8/9/2016 1:50 AM,154.30,1.90,0.04,95,99.40,1.81,0.04,90,223.90,1.50,-1.19,87,215.70,6.74,-1.42,90,142.10,1.63,-1.12,76,262.00,2.20,-2.32,86,283.20,0.79,-2.24,86,235.10,3.88,-1.52,76,229.10,4.43,-2.45,84,146.70,5.28,-1.76,90,228.40,2.99,-1.33,84,0.37,1.06,1.91,0.74,1.12,2.74,2.30,1.70,1.42,0.98,0.86
8/9/2016 2:00 AM,147.30,2.54,0.04,98,68.60,0.56,-0.20,94,149.90,4.31,-0.10,93,87.30,3.90,-0.10,91,197.00,6.88,-1.84,90,156.80,3.17,-1.68,90,41.30,4.07,-1.58,83,227.30,7.21,-2.06,84,212.30,3.42,-0.83,81,186.30,3.45,-1.06,89,285.20,2.58,-1.27,74,0.24,1.83,0.63,1.30,0.90,1.81,1.23,1.01,4.01,1.61,2.16
8/9/2016 2:10 AM,154.00,2.74,0.26,90,228.10,4.29,0.31,88,205.30,15.51,0.23,74,229.90,13.04,0.00,81,197.90,13.15,0.98,60,215.10,15.52,0.37,60,233.40,10.42,-0.24,85,217.40,15.66,0.26,59,213.70,16.52,-0.06,62,198.20,12.53,0.82,77,236.70,16.63,0.12,81,0.29,0.58,0.28,0.37,0.49,0.38,0.50,0.35,0.28,0.37,0.27
8/9/2016 2:20 AM,166.50,2.67,0.37,93,210.10,3.27,1.11,87,214.70,5.86,1.90,81,235.10,6.64,1.99,74,215.30,8.44,2.43,63,233.90,8.25,1.95,71,232.40,8.79,2.21,73,216.70,8.79,2.00,78,218.10,7.15,2.39,75,220.20,6.19,2.62,78,224.90,8.22,2.15,62,0.27,0.32,0.22,0.26,0.28,0.29,0.27,0.24,0.29,0.26,0.29
8/9/2016 2:30 AM,147.00,2.26,0.15,94,165.20,3.55,1.03,73,150.70,4.47,1.53,64,213.30,2.95,1.56,76,244.90,7.59,2.09,42,217.90,6.39,2.14,49,208.40,5.02,1.43,68,210.20,6.99,1.80,50,224.80,5.49,1.83,36,241.70,7.44,2.19,59,240.50,6.16,2.31,53,0.20,0.33,0.50,1.10,0.31,0.55,0.49,0.36,0.44,0.33,0.49
8/9/2016 2:40 AM,216.60,1.27,-0.11,96,170.10,4.17,0.76,96,174.10,6.36,1.44,75,183.00,4.30,1.91,88,183.00,5.49,2.31,84,179.90,7.60,2.06,84,171.10,4.44,1.81,87,175.10,4.60,2.01,78,186.50,3.14,2.05,76,189.70,3.20,2.33,85,166.90,4.33,2.22,82,0.66,0.31,0.34,0.67,0.53,0.55,1.87,0.94,0.79,0.80,1.21
8/9/2016 2:50 AM,210.30,1.61,-0.07,81,236.40,2.13,0.16,94,154.10,2.99,0.74,76,158.50,0.66,0.81,76,155.30,6.92,0.59,53,156.00,6.59,0.77,52,123.30,5.54,1.60,46,157.70,10.04,1.10,44,135.50,4.18,0.79,64,142.60,8.93,1.49,58,181.50,12.59,0.33,47,0.37,0.54,0.72,15.22,0.52,0.79,0.88,0.55,1.62,0.43,0.36
8/9/2016 3:00 AM,224.20,0.81,-0.07,94,296.20,0.71,-0.12,85,35.10,1.54,0.09,75,350.30,1.83,0.12,85,39.90,1.06,0.24,49,78.70,5.58,0.15,52,237.10,0.09,0.27,43,55.60,2.48,0.09,68,302.70,1.54,-0.33,55,6.00,3.84,-0.11,31,323.30,0.94,0.20,42,0.67,0.91,0.62,0.52,2.45,0.31,1.50,0.61,1.11,0.70,2.18
8/9/2016 3:10 AM,222.30,1.43,-0.20,93,351.80,0.45,-0.06,95,62.00,2.26,0.10,79,37.20,3.61,0.30,44,31.10,5.55,0.29,68,51.30,2.00,0.43,73,50.20,4.21,0.42,45,25.90,5.23,0.28,75,90.50,3.90,0.65,68,75.50,6.99,0.63,60,26.20,5.24,0.45,63,0.44,1.25,0.40,0.54,0.34,3.16,1.14,0.36,0.51,0.51,0.42
8/9/2016 3:20 AM,184.70,1.85,-0.11,49,96.70,0.95,-0.10,80,28.10,1.88,0.12,63,31.60,2.04,0.36,84,52.70,6.14,0.31,58,53.30,6.52,-0.10,48,64.80,6.08,0.90,49,47.40,8.98,0.12,55,18.00,1.75,0.04,44,15.60,3.62,0.00,60,31.60,4.25,0.40,54,0.32,1.12,0.75,0.85,0.42,0.43,1.17,0.41,1.59,1.02,0.54
8/9/2016 3:30 AM,179.70,4.89,-0.26,29,120.20,0.84,0.02,93,43.40,4.15,-0.18,86,58.90,2.91,-0.05,89,63.40,5.08,0.13,71,26.00,4.03,0.14,56,42.60,3.51,-0.17,63,344.70,2.62,-0.65,69,18.90,5.91,-0.25,64,35.60,6.48,-0.28,67,49.80,9.29,-0.72,63,0.06,0.91,0.84,0.51,0.49,0.95,0.59,1.85,0.62,0.74,0.51
8/9/2016 3:40 AM,192.90,4.06,-0.47,31,149.50,1.49,-0.02,92,66.40,2.39,-0.17,74,61.50,2.36,-0.21,89,41.50,8.17,-0.89,83,77.70,7.14,-0.78,61,74.50,12.54,-0.23,68,74.50,5.69,-1.54,62,27.60,8.65,-1.54,69,61.00,7.35,-0.41,52,73.20,5.62,-1.20,59,0.14,0.31,0.41,0.60,0.55,0.94,0.51,0.47,0.49,0.68,0.41
8/9/2016 3:50 AM,166.90,0.97,-0.07,67,219.80,0.47,-0.16,51,357.60,1.01,0.18,89,53.70,1.92,0.43,79,50.60,1.79,1.39,55,186.40,7.47,2.50,39,175.10,4.05,2.31,52,218.60,3.61,2.28,32,158.80,5.50,2.97,27,213.30,5.00,2.86,37,158.90,3.15,2.44,22,0.49,1.32,2.01,0.67,1.25,0.37,0.49,1.12,0.65,0.77,0.66
8/9/2016 4:00 AM,174.80,2.50,0.00,53,113.60,0.38,-0.08,82,76.10,0.99,0.18,90,88.90,2.12,0.29,89,85.10,5.13,1.02,76,85.40,12.82,0.68,51,61.00,6.88,0.89,36,78.20,10.54,1.18,45,70.80,11.70,0.89,39,78.00,10.45,1.17,41,52.40,10.54,0.21,59,0.13,0.80,1.63,0.95,0.59,0.42,0.86,0.44,0.47,0.37,0.45
8/9/2016 4:10 AM,175.90,2.22,0.00,64,129.80,0.32,-0.17,44,72.00,1.68,-0.10,46,58.70,3.62,-0.15,89,76.20,17.51,-0.68,68,65.60,19.67,-0.21,44,70.30,20.18,-0.84,42,75.60,18.08,0.07,34,78.50,17.05,0.19,55,92.10,17.07,0.08,49,70.80,25.54,0.22,42,0.17,2.77,0.48,0.31,0.20,0.19,0.23,0.16,0.23,0.19,0.17
8/9/2016 4:20 AM,175.60,1.88,0.01,95,200.60,2.63,0.67,88,129.20,4.36,1.09,91,115.20,6.38,1.05,90,36.10,3.65,2.23,82,104.20,4.13,2.93,73,77.60,15.47,2.42,60,56.90,5.02,3.00,54,70.10,2.46,3.56,66,64.80,6.46,2.49,60,142.60,9.05,1.96,57,0.31,1.04,0.64,0.55,0.95,2.69,0.37,0.77,1.40,0.72,1.13
8/9/2016 4:30 AM,198.80,1.46,-0.06,94,213.80,1.11,0.33,54,124.10,4.07,1.12,70,85.90,1.45,0.99,90,65.60,4.52,1.40,75,78.50,2.39,2.18,56,357.60,5.74,1.22,57,50.80,4.39,1.96,57,74.60,4.98,3.34,54,88.90,2.02,2.12,39,29.90,5.74,2.60,51,0.25,1.61,0.43,1.15,0.75,0.91,0.65,1.21,0.67,0.68,0.56
8/9/2016 4:40 AM,189.60,1.88,-0.11,94,94.50,1.78,-0.36,85,248.70,0.66,-0.93,89,153.70,4.63,-0.73,89,136.00,8.16,-0.56,84,148.30,5.94,-1.18,70,219.90,1.07,-1.29,82,140.40,1.55,-0.71,86,137.70,5.28,-1.11,88,139.30,8.07,-0.77,66,192.70,3.03,-0.85,83,0.35,1.63,11.63,1.50,0.60,1.01,2.31,1.12,1.02,0.46,8.78
8/9/2016 4:50 AM,180.70,1.87,-0.13,65,71.20,3.57,-0.48,73,66.10,5.48,-1.09,69,76.70,6.58,-1.60,58,80.70,1.84,-2.27,53,111.60,2.83,-0.80,72,161.80,3.68,-1.64,57,224.60,3.24,-2.29,65,9.30,5.74,-1.99,50,112.10,7.96,-0.82,67,222.90,1.22,-2.09,56,0.32,0.23,0.42,0.45,0.75,2.00,1.10,0.58,0.72,0.90,1.02
8/9/2016 5:00 AM,145.00,1.82,-0.12,77,67.70,4.01,-0.58,61,59.80,3.19,-1.29,89,67.90,2.61,-1.45,73,110.10,3.87,-2.36,46,317.20,3.60,-2.41,60,6.00,4.23,-2.90,53,220.00,0.74,-2.80,58,258.10,3.76,-2.46,56,184.70,0.30,-2.26,49,340.70,4.08,-2.54,49,0.34,0.27,0.53,1.06,0.55,0.50,0.29,23.72,1.78,0.61,0.52
8/9/2016 5:10 AM,172.10,3.10,-0.01,49,199.00,2.62,0.90,60,104.10,3.14,1.31,82,171.20,0.49,1.08,94,208.10,8.04,2.96,71,323.00,5.14,2.44,52,285.50,7.16,2.18,58,329.70,11.11,2.83,57,27.40,4.09,2.90,62,313.00,3.27,3.53,33,346.10,3.96,3.33,53,0.25,0.85,0.64,1.86,2.29,0.66,2.29,0.47,0.99,1.45,0.78
8/9/2016 5:20 AM,178.40,2.14,-0.16,69,189.20,1.92,0.24,72,104.30,4.03,0.46,90,32.60,1.34,0.29,91,291.20,1.63,-0.07,86,268.70,4.33,-0.64,70,1.60,4.67,-0.30,76,50.20,2.44,0.02,63,303.00,0.56,0.76,75,215.00,5.30,-0.21,64,293.40,3.95,-0.17,45,0.21,0.80,0.78,1.48,0.83,1.53,0.74,2.84,2.65,9.62,8.04
8/9/2016 5:30 AM,180.80,3.00,-0.28,69,71.60,0.75,-0.15,92,150.70,2.13,-0.49,88,316.80,1.33,-0.62,89,232.80,3.77,-1.73,56,250.20,6.64,-1.61,54,270.90,4.10,-1.53,58,296.20,4.48,-1.83,56,159.30,6.19,-1.19,64,274.30,3.72,-1.65,52,223.50,3.48,-1.47,49,0.14,0.83,1.72,1.11,1.30,0.74,2.39,1.14,0.84,1.28,1.74
8/9/2016 5:40 AM,233.00,0.71,-0.03,60,250.00,3.17,0.23,91,54.10,2.79,0.40,71,35.10,4.44,0.95,86,308.40,5.23,1.83,72,332.20,4.40,2.49,63,5.50,5.62,1.40,73,351.60,5.31,1.67,68,2.00,4.85,1.64,69,350.30,5.04,1.64,76,17.40,5.96,1.62,76,0.61,0.31,0.89,0.61,0.73,0.72,0.45,1.65,0.85,0.82,0.78
8/9/2016 5:50 AM,107.70,1.43,-0.03,22,182.60,1.26,0.08,62,270.80,2.25,0.38,88,273.80,4.30,0.79,89,350.70,2.04,0.62,77,320.10,4.41,0.88,68,22.30,5.70,1.53,56,298.20,9.04,1.04,48,304.80,3.42,0.06,70,337.80,2.94,1.42,65,338.50,5.74,1.31,56,0.28,0.87,0.91,0.92,3.06,1.81,0.58,0.61,4.27,1.04,0.77
8/9/2016 6:00 AM,128.50,1.45,0.01,18,148.20,2.82,0.36,56,57.60,3.26,0.15,75,43.10,5.36,0.05,80,169.90,8.40,0.03,63,121.50,7.53,0.23,66,128.20,7.44,0.73,77,113.30,9.70,0.64,77,163.30,7.30,0.19,62,93.00,1.75,-0.10,74,116.40,7.37,-0.12,60,0.27,0.38,0.52,0.99,0.54,1.54,0.76,0.63,0.87,1.26,0.74
8/9/2016 6:10 AM,134.30,1.10,0.07,11,128.40,2.29,0.21,51,264.20,1.91,0.52,89,357.80,0.61,0.46,89,23.70,2.60,0.33,63,35.10,9.03,0.64,71,27.50,9.43,1.29,68,341.70,5.91,0.79,50,21.90,11.21,0.13,53,351.10,8.20,1.33,45,16.20,10.33,1.19,58,0.33,0.44,1.40,2.79,1.17,0.54,0.39,0.77,0.40,0.35,0.40
8/9/2016 6:20 AM,127.20,1.07,-0.02,90,285.10,2.87,-0.30,92,124.00,1.30,-0.25,71,116.80,1.32,-0.06,91,190.30,4.08,-0.04,84,122.70,1.34,-0.07,84,82.60,5.33,-0.55,85,165.00,1.99,0.37,64,151.00,5.61,-0.28,70,157.60,4.23,0.29,77,202.10,4.02,-0.77,72,0.46,0.23,0.59,2.14,0.86,1.36,0.68,0.70,0.78,0.66,65.54
8/9/2016 6:30 AM,193.50,1.54,-0.08,93,241.80,1.78,0.02,93,126.00,2.40,0.36,92,213.90,1.49,1.12,85,288.20,4.57,2.00,79,199.10,8.62,2.43,42,350.70,3.23,3.27,56,312.40,5.96,2.74,57,326.90,5.56,2.88,61,234.80,5.50,3.54,74,283.00,7.30,3.21,59,0.22,0.44,0.68,9.40,0.63,2.25,0.96,0.84,1.53,4.49,2.80
8/9/2016 6:40 AM,208.80,1.14,-0.14,47,197.00,0.96,0.00,94,104.00,0.81,0.05,92,122.30,1.56,0.19,90,87.30,2.76,-0.23,45,149.30,0.67,0.54,32,314.20,4.35,0.89,46,122.90,2.27,0.50,57,124.50,4.60,0.67,56,107.80,0.31,0.25,59,201.10,5.59,0.86,57,0.30,0.39,0.70,0.42,0.28,0.41,0.95,0.35,0.27,0.63,1.07
8/9/2016 6:50 AM,175.00,1.17,-0.15,93,208.50,2.14,0.08,93,106.20,2.71,0.31,88,107.20,3.54,0.59,88,181.40,3.39,1.03,89,173.50,2.89,0.64,91,168.80,3.17,0.84,88,128.10,1.39,0.71,92,96.90,4.23,0.80,87,180.30,3.35,1.84,66,182.50,4.59,1.98,64,0.37,0.36,0.29,0.41,1.37,0.48,0.87,1.19,0.47,0.69,0.60
8/9/2016 7:00 AM,229.40,0.61,0.07,94,181.50,1.70,0.64,92,174.50,2.70,1.25,88,216.40,3.11,1.56,77,227.90,2.22,2.73,78,172.30,2.67,2.40,79,193.40,4.08,2.32,63,204.30,4.15,2.42,74,245.70,2.09,2.55,64,98.70,2.43,2.87,41,317.20,1.64,2.61,52,1.34,0.81,0.52,0.60,0.75,0.62,1.18,0.52,0.70,0.45,3.98
8/9/2016 7:10 AM,140.50,1.21,0.02,27,189.40,4.53,0.89,85,163.60,2.52,1.18,89,175.80,3.47,1.24,89,202.50,4.41,1.83,62,140.20,2.86,2.68,56,213.00,1.92,2.62,68,196.30,1.95,2.17,70,117.50,2.67,2.28,44,300.60,2.19,2.78,53,89.20,0.21,2.04,58,0.34,0.32,0.76,0.50,0.39,0.58,1.06,1.06,0.74,1.20,2.18
8/9/2016 7:20 AM,78.10,1.10,0.08,9,206.20,2.95,0.68,74,325.80,0.95,0.96,90,349.20,2.33,1.08,89,315.00,2.63,1.10,85,310.70,3.78,1.19,88,302.40,4.08,1.36,87,276.20,3.44,1.47,82,252.80,0.98,1.49,71,327.20,3.99,1.27,86,285.80,7.24,1.41,74,0.24,0.35,1.06,0.98,0.78,0.85,0.67,1.19,1.49,0.61,0.41
8/9/2016 7:30 AM,133.50,0.40,-0.22,69,320.60,1.26,-0.57,91,268.40,3.36,-0.72,90,304.60,4.97,-0.89,78,284.80,4.42,-0.39,69,2.90,1.39,-0.49,70,264.60,3.36,-0.50,72,246.80,3.73,-0.20,72,314.60,2.63,-0.49,68,267.90,3.44,-0.70,80,288.20,6.12,-0.40,57,1.06,1.00,0.62,0.60,0.49,1.37,0.73,1.02,1.10,0.90,0.47
8/9/2016 7:40 AM,81.30,2.06,-0.82,33,196.00,0.16,-0.61,93,303.30,1.91,-0.96,86,328.90,1.67,-1.30,89,307.20,2.15,-1.89,80,218.60,6.19,-0.63,61,205.20,2.13,-0.79,68,266.30,1.71,-1.31,79,234.30,0.46,-1.33,75,194.30,2.88,-1.11,72,229.60,2.67,-1.28,84,0.41,1.86,0.78,1.70,1.17,0.38,1.57,0.78,1.52,0.45,0.56
8/9/2016 7:50 AM,332.10,0.70,-0.90,46,302.90,2.07,-1.17,86,293.40,1.95,-1.54,79,272.30,3.57,-1.68,75,273.20,6.83,-1.32,57,200.70,3.22,-0.96,67,302.90,6.00,-1.61,81,249.60,4.65,-1.29,70,247.50,7.95,-1.13,68,278.00,2.95,-1.73,63,259.40,7.54,-1.11,69,1.94,1.01,0.69,0.54,0.33,1.09,0.39,0.52,0.44,0.46,0.42
8/9/2016 8:00 AM,148.70,0.81,-0.10,94,128.10,0.44,0.08,94,52.70,0.82,0.69,89,233.80,6.34,1.41,62,213.70,8.52,2.33,59,191.60,3.79,2.35,47,212.40,3.99,1.66,52,204.30,4.74,1.78,51,245.30,5.07,1.86,48,116.50,2.13,2.08,58,239.70,4.96,1.37,55,0.49,3.91,2.07,0.49,0.39,0.47,1.22,0.65,0.88,4.69,0.63
8/9/2016 8:10 AM,52.20,1.33,0.02,96,142.20,0.93,0.13,95,162.80,0.35,0.65,95,124.50,1.60,2.02,93,273.10,1.95,3.26,88,269.70,1.68,3.85,67,198.50,2.46,4.21,57,310.20,0.81,3.84,76,222.80,1.97,3.72,62,311.30,1.89,4.02,53,193.00,2.04,4.03,69,0.37,1.00,2.52,1.71,1.30,1.83,0.40,1.27,1.66,1.07,1.36
8/9/2016 8:20 AM,75.30,0.78,-0.04,95,94.20,1.44,0.00,95,115.90,1.69,0.02,95,165.10,3.30,0.79,94,332.80,1.13,3.06,70,5.50,0.71,3.72,55,265.60,0.64,4.03,49,304.60,3.94,3.70,59,168.30,0.89,3.60,61,149.10,1.03,3.73,53,84.70,2.88,3.88,38,0.48,0.27,0.40,0.61,1.16,2.93,1.05,0.84,1.99,1.26,0.95
8/9/2016 8:30 AM,87.70,0.96,-0.03,94,91.40,1.26,0.00,95,108.20,1.58,0.00,94,6.50,0.99,0.60,94,309.40,2.96,2.27,54,188.70,1.29,2.59,50,309.40,2.71,3.57,46,74.90,5.43,2.87,45,28.50,3.19,3.08,34,275.30,0.25,3.24,27,322.40,5.40,2.79,42,0.41,0.36,0.33,2.09,1.24,2.32,0.62,0.53,0.62,1.00,0.56
8/9/2016 8:40 AM,123.50,1.27,0.02,93,74.20,1.57,0.11,93,57.20,1.87,0.68,95,154.10,1.17,1.92,91,217.40,5.17,3.20,88,209.20,5.29,3.90,58,224.00,6.17,3.92,76,192.40,6.02,4.02,75,177.80,4.47,3.67,79,202.60,3.79,4.36,70,190.20,5.60,3.96,70,0.28,0.67,0.78,1.16,0.61,0.38,0.98,0.61,1.22,0.78,0.36
8/9/2016 8:50 AM,147.30,1.32,-0.02,63,18.50,0.62,0.04,95,122.40,2.24,0.65,92,129.10,3.57,1.64,60,279.60,6.76,3.11,59,89.20,0.53,4.02,47,293.00,2.26,3.27,33,77.70,2.44,4.00,42,271.10,3.27,3.98,37,292.40,4.67,3.64,44,281.50,4.07,3.54,45,0.28,1.31,0.53,0.59,1.41,0.77,1.02,0.35,0.53,1.16,0.68
8/9/2016 9:00 AM,186.10,1.51,-0.23,72,236.70,1.32,0.26,94,162.10,3.25,1.05,92,145.20,2.43,1.43,93,341.20,5.97,3.54,80,281.90,4.30,4.52,82,241.60,1.15,4.21,85,323.20,3.64,3.98,70,282.30,5.23,4.47,71,353.50,2.19,4.70,81,317.10,1.74,4.01,78,0.39,0.79,0.66,1.94,0.55,0.79,1.33,0.65,0.47,1.37,1.31
8/9/2016 9:10 AM,259.60,1.87,-0.07,24,202.90,0.75,0.43,94,107.40,1.95,0.99,94,107.10,4.20,1.69,91,127.90,4.86,3.75,75,174.40,9.63,3.90,64,168.40,7.03,4.03,71,160.80,3.13,5.01,60,180.00,5.57,4.03,72,152.90,5.28,4.42,78,80.90,1.60,4.71,70,0.34,1.53,2.30,0.67,0.56,0.59,0.70,0.57,0.84,0.58,1.28
8/9/2016 9:20 AM,247.50,0.46,-0.02,61,28.70,0.24,0.07,67,211.40,2.45,0.29,91,143.50,1.52,0.06,88,157.10,4.75,0.52,77,255.20,9.39,0.49,61,223.60,7.92,0.14,85,186.30,2.36,0.41,86,215.00,3.88,1.17,68,238.20,5.67,0.00,83,224.90,2.94,0.41,74,0.86,1.34,2.61,4.47,0.97,0.69,1.11,2.38,1.53,11.18,2.66
8/9/2016 9:30 AM,274.20,3.16,-0.56,65,270.30,3.32,-1.28,92,181.00,3.20,-1.70,89,167.40,0.78,-2.78,79,326.50,1.89,-2.93,84,231.60,1.99,-2.59,76,255.30,4.27,-2.58,89,292.50,2.42,-3.15,79,279.30,1.31,-2.54,74,244.70,7.36,-2.10,76,258.60,3.82,-2.80,73,0.35,0.49,0.64,1.56,1.06,1.35,0.83,0.74,1.44,0.65,1.08
8/9/2016 9:40 AM,276.70,0.88,-0.07,69,231.90,1.02,-0.01,85,271.40,6.73,0.31,81,331.30,7.71,1.01,69,300.20,8.78,1.82,53,259.40,11.66,1.24,48,270.10,10.07,0.70,62,317.50,8.04,1.00,68,310.00,4.90,1.66,56,276.30,13.24,0.31,60,254.10,7.06,0.56,61,0.51,1.33,0.52,0.77,0.64,1.10,0.61,1.16,1.64,0.33,0.94
8/9/2016 9:50 AM,198.00,0.65,-0.07,57,233.50,5.06,0.55,96,254.20,4.95,1.08,94,333.90,5.44,1.22,88,231.80,6.56,2.64,88,258.90,8.25,2.80,77,293.90,9.53,2.40,54,322.40,4.63,2.84,60,256.90,8.29,2.43,72,273.40,4.21,2.49,70,291.60,5.17,3.56,46,0.96,0.34,0.54,0.57,0.95,0.61,0.42,3.39,0.71,1.00,1.11
8/9/2016 10:00 AM,120.30,0.73,-0.03,49,193.90,1.08,-0.08,96,206.20,1.82,-0.01,93,196.20,2.61,0.24,90,190.30,4.15,1.16,80,251.00,3.05,0.87,49,159.90,8.91,0.59,68,121.90,8.73,0.33,77,165.60,1.87,1.02,77,136.00,5.71,0.58,63,114.30,8.38,1.56,56,0.74,0.73,0.90,2.26,1.24,0.62,0.77,0.46,1.79,0.70,0.58
8/9/2016 10:10 AM,149.10,0.78,0.17,38,144.70,0.56,-0.08,97,190.90,1.38,0.08,93,355.70,3.04,0.56,91,282.10,9.21,1.30,84,287.20,4.38,1.51,66,268.10,10.41,1.60,58,182.10,6.45,1.78,62,287.00,12.83,3.21,57,2.20,5.02,2.34,67,240.00,6.79,2.01,61,1.15,1.43,0.93,1.02,0.65,0.83,1.10,1.19,0.45,2.01,0.81
8/9/2016 10:20 AM,308.30,6.45,-1.07,9,240.40,2.37,-0.39,94,203.70,1.49,-0.06,95,194.40,2.06,-0.30,56,231.70,9.67,1.12,85,251.20,13.42,1.36,60,235.20,9.23,1.46,56,235.70,5.04,0.57,73,197.30,22.80,1.16,60,227.20,14.00,1.17,61,188.90,11.96,1.72,57,0.24,0.47,1.39,2.67,0.67,0.67,0.93,1.01,0.40,0.82,0.83
8/9/2016 10:30 AM,74.80,1.25,-0.25,25,234.40,1.68,0.11,93,134.60,2.07,0.17,73,147.80,5.16,0.87,85,196.20,2.85,0.56,87,164.90,4.80,1.56,60,174.70,5.96,1.25,52,217.50,8.07,1.90,55,108.60,6.67,1.62,50,125.00,15.56,4.13,41,176.20,4.35,2.24,55,0.40,0.70,0.94,0.49,1.24,1.00,0.66,1.47,1.40,0.69,3.20
8/9/2016 10:40 AM,100.90,0.35,-0.11,92,255.10,0.13,-0.25,92,156.40,0.93,-0.17,72,200.30,2.41,-0.11,89,124.40,7.75,0.14,56,158.60,3.77,0.05,59,285.00,8.45,-0.27,50,132.10,5.58,-0.36,49,179.80,11.71,1.41,56,110.30,10.00,-0.06,54,238.70,12.44,-0.03,53,3.24,1.94,1.51,0.80,0.57,1.53,0.77,2.08,1.36,1.40,0.61
8/9/2016 10:50 AM,199.80,1.79,0.05,93,181.90,1.40,0.11,89,200.50,1.11,-0.11,95,90.80,0.89,-0.03,92,53.10,2.53,-0.27,77,169.10,12.57,0.90,44,153.60,11.08,0.00,38,122.20,10.31,1.10,32,195.20,10.02,-1.99,48,264.70,11.96,-0.86,31,99.80,4.62,-1.19,46,0.29,0.56,1.35,3.23,0.67,0.66,0.66,0.61,0.60,0.76,0.97
8/9/2016 11:00 AM,128.70,1.45,0.00,72,209.70,0.56,0.07,94,87.50,1.31,0.13,72,38.60,3.63,-0.47,58,284.50,1.31,-0.27,74,69.10,2.87,-1.06,49,225.20,6.07,-1.03,47,216.80,5.33,-0.48,36,125.40,10.99,-1.71,30,349.00,7.48,-0.03,28,315.60,8.99,-0.96,36,0.31,1.74,1.39,0.57,2.97,2.23,0.50,0.50,0.40,0.76,0.74
8/9/2016 11:10 AM,103.80,1.41,-0.01,91,350.80,0.90,-0.01,96,77.90,0.78,0.03,64,88.00,1.94,0.37,75,202.10,1.33,0.25,69,35.00,4.43,-0.23,58,230.10,2.28,-0.26,51,179.30,4.89,0.39,46,358.70,5.18,0.21,49,196.60,8.90,0.68,59,325.60,8.25,0.74,43,0.45,1.11,1.76,1.78,4.38,0.89,4.24,1.85,0.96,1.22,1.55
8/9/2016 11:20 AM,108.80,1.44,-0.02,96,67.60,1.65,0.10,97,31.70,1.34,0.00,60,166.90,1.19,-0.18,92,96.10,3.74,-0.15,79,151.70,7.81,-0.43,58,154.00,6.08,-1.46,37,82.60,4.38,-1.35,45,263.60,9.33,-1.58,36,141.60,8.48,-2.06,35,243.40,16.05,-2.00,39,0.31,0.44,0.91,4.05,0.79,0.47,0.87,1.05,0.85,0.65,0.56
8/9/2016 11:30 AM,100.70,1.39,-0.09,95,72.40,2.04,0.11,96,130.90,1.81,-0.01,95,119.30,1.87,0.03,95,149.60,2.76,-0.10,94,179.40,3.24,-0.07,89,212.20,5.05,-0.19,67,188.70,8.94,0.56,49,118.40,0.74,-0.86,31,193.60,10.53,-1.74,32,177.10,10.17,-0.02,34,0.40,0.22,0.23,0.24,0.51,0.87,1.02,0.75,0.72,0.69,0.72
8/9/2016 11:40 AM,122.80,1.82,-0.02,96,106.80,1.54,0.02,97,106.70,1.98,0.04,97,138.20,2.57,-0.08,93,128.90,4.71,-0.09,91,166.40,4.44,-0.30,89,135.20,4.66,-0.08,77,152.90,12.48,-0.38,67,122.00,12.26,0.25,48,195.80,6.01,-0.91,59,192.80,11.24,-1.51,56,0.27,0.58,0.50,0.46,0.28,0.44,0.74,0.37,0.54,0.68,0.36
8/9/2016 11:50 AM,134.70,2.31,0.06,98,123.80,2.52,0.10,98,133.60,2.23,0.04,97,114.30,2.63,0.02,97,133.00,2.71,0.12,95,141.10,3.18,0.06,94,141.40,3.21,-0.12,87,114.10,4.29,-0.06,89,189.40,3.57,0.11,71,211.00,6.68,-0.39,56,225.60,3.73,0.37,51,0.25,0.23,0.44,0.39,0.51,0.97,0.86,0.65,1.22,2.28,0.89
8/9/2016 12:00 PM,112.40,2.82,0.17,98,104.60,2.90,0.26,98,125.60,2.57,0.38,98,114.60,2.75,0.39,98,119.30,3.15,0.47,97,134.10,2.93,0.59,97,111.80,2.13,0.59,97,112.60,3.09,0.37,96,117.70,2.67,0.37,93,113.50,2.85,0.34,93,76.30,1.76,0.14,91,0.18,0.16,0.30,0.24,0.31,0.42,0.61,0.47,0.52,0.53,0.94
8/9/2016 12:10 PM,125.70,2.67,-0.09,98,120.80,2.87,-0.03,98,120.50,2.93,-0.03,97,128.80,2.65,-0.06,98,125.40,2.79,-0.08,96,144.30,4.34,-0.14,94,148.70,3.20,-0.04,94,126.90,2.32,-0.09,91,90.20,1.77,-0.02,86,144.80,2.38,0.19,59,161.80,1.88,-0.02,71,0.18,0.16,0.15,0.24,0.47,0.49,0.69,1.38,1.35,1.03,1.00
8/9/2016 12:20 PM,115.10,2.68,0.05,98,104.60,2.96,0.06,98,104.80,2.87,-0.03,97,113.20,2.06,-0.03,98,89.10,0.96,-0.29,95,109.30,1.08,-0.28,94,173.50,1.48,-0.08,93,180.30,1.97,-0.43,92,195.80,2.44,-0.54,88,349.00,0.39,-1.17,88,211.60,3.59,-1.47,80,0.18,0.23,0.35,0.87,2.89,2.42,1.85,1.48,1.15,2.33,1.81
8/9/2016 12:30 PM,99.20,2.85,0.05,97,100.60,2.75,0.02,98,106.90,3.31,0.06,97,108.90,2.97,0.05,98,114.30,3.47,0.05,97,107.60,4.13,0.00,97,144.60,4.00,0.14,96,90.20,2.76,0.19,94,124.40,2.18,-0.22,91,151.30,6.34,-0.67,87,176.00,4.24,-0.75,87,0.17,0.19,0.20,0.29,0.28,0.33,0.41,1.11,2.24,0.42,0.53
8/9/2016 12:40 PM,106.50,2.64,0.10,98,97.30,3.10,0.17,99,88.60,3.06,0.22,97,93.20,3.17,0.36,98,88.60,2.82,0.40,99,100.70,3.25,0.43,99,110.90,3.24,0.38,96,118.90,3.14,0.38,96,114.60,3.00,0.29,94,126.80,3.91,0.39,93,131.60,4.90,0.13,91,0.19,0.17,0.21,0.21,0.26,0.25,0.43,0.47,0.42,0.29,0.47